Satellite: NO-44
Catalog number: 26931
Epoch time:      11118.51112931
Element set:     738
Inclination:      067.0507 deg
RA of node:       111.5268 deg
Eccentricity:    0.0007329
Arg of perigee:   264.5178 deg
Mean anomaly:     095.5109 deg
Mean motion:   14.29651109 rev/day
Decay rate:      -1.15e-06 rev/day^2
Epoch rev:           49982
Checksum:              302

Satellite: SO-50
Catalog number: 27607
Epoch time:      11117.51037534
Element set:    0453
Inclination:      064.5574 deg
RA of node:       121.6635 deg
Eccentricity:    0.0067418
Arg of perigee:   332.6611 deg
Mean anomaly:     027.0959 deg
Mean motion:   14.71710507 rev/day
Decay rate:       4.43e-06 rev/day^2
Epoch rev:           44863
Checksum:              292

Satellite: CO-55
Catalog number: 27844
Epoch time:      11117.54333597
Element set:      96
Inclination:      098.7073 deg
RA of node:       126.9803 deg
Eccentricity:    0.0009763
Arg of perigee:   350.4812 deg
Mean anomaly:     009.6187 deg
Mean motion:   14.20798097 rev/day
Decay rate:       1.75e-06 rev/day^2
Epoch rev:           40572
Checksum:              330

Satellite: CO-57
Catalog number: 27848
Epoch time:      11117.54934058
Element set:      45
Inclination:      098.7139 deg
RA of node:       126.1591 deg
Eccentricity:    0.0009816
Arg of perigee:   355.2099 deg
Mean anomaly:     004.9000 deg
Mean motion:   14.20579263 rev/day
Decay rate:       1.49e-06 rev/day^2
Epoch rev:           40567
Checksum:              316

Satellite: AO-51
Catalog number: 28375
Epoch time:      11117.96884958
Element set:    0955
Inclination:      098.0940 deg
RA of node:       099.0666 deg
Eccentricity:    0.0082731
Arg of perigee:   222.3720 deg
Mean anomaly:     137.1028 deg
Mean motion:   14.40750361 rev/day
Decay rate:       1.58e-06 rev/day^2
Epoch rev:           35883
Checksum:              327

Satellite: CP3
Catalog number: 31129
Epoch time:      11117.72264669
Element set:     854
Inclination:      097.9030 deg
RA of node:       144.8445 deg
Eccentricity:    0.0100608
Arg of perigee:   338.5936 deg
Mean anomaly:     021.1061 deg
Mean motion:   14.52453364 rev/day
Decay rate:       5.27e-06 rev/day^2
Epoch rev:           21351
Checksum:              282

Satellite: CO-65
Catalog number: 32785
Epoch time:      11118.51989451
Element set:     975
Inclination:      097.8514 deg
RA of node:       183.3542 deg
Eccentricity:    0.0014505
Arg of perigee:   342.9338 deg
Mean anomaly:     017.1380 deg
Mean motion:   14.81948451 rev/day
Decay rate:       5.81e-06 rev/day^2
Epoch rev:           16218
Checksum:              325

Satellite: KKS-1
Catalog number: 33493
Epoch time:      11118.59137893
Element set:     529
Inclination:      098.1175 deg
RA of node:       246.5025 deg
Eccentricity:    0.0019625
Arg of perigee:   198.3368 deg
Mean anomaly:     161.7138 deg
Mean motion:   14.81584325 rev/day
Decay rate:      1.906e-05 rev/day^2
Epoch rev:           12217
Checksum:              318

Satellite: SOHLA-1
Catalog number: 33496
Epoch time:      11117.93889850
Element set:    0407
Inclination:      098.0752 deg
RA of node:       228.2922 deg
Eccentricity:    0.0005611
Arg of perigee:   287.9847 deg
Mean anomaly:     072.0747 deg
Mean motion:   14.69599608 rev/day
Decay rate:       2.82e-06 rev/day^2
Epoch rev:           12110
Checksum:              325

Satellite: TISAT-1
Catalog number: 36799
Epoch time:      11118.59778356
Element set:     804
Inclination:      098.1046 deg
RA of node:       186.3499 deg
Eccentricity:    0.0016619
Arg of perigee:   078.5979 deg
Mean anomaly:     281.7107 deg
Mean motion:   14.80483191 rev/day
Decay rate:      1.155e-05 rev/day^2
Epoch rev:            4297
Checksum:              353

Satellite: STUDSAT
Catalog number: 36801
Epoch time:      11118.87732269
Element set:     175
Inclination:      098.1076 deg
RA of node:       186.4807 deg
Eccentricity:    0.0014870
Arg of perigee:   067.5349 deg
Mean anomaly:     292.7433 deg
Mean motion:   14.80432763 rev/day
Decay rate:      2.993e-05 rev/day^2
Epoch rev:            4300
Checksum:              312

Satellite: RAX
Catalog number: 37223
Epoch time:      11089.46431449
Element set:    0122
Inclination:      071.9716 deg
RA of node:       212.4675 deg
Eccentricity:    0.0019443
Arg of perigee:   068.5267 deg
Mean anomaly:     291.7923 deg
Mean motion:   14.77296529 rev/day
Decay rate:       6.60e-06 rev/day^2
Epoch rev:           01926
Checksum:              313

Satellite: OOREOS
Catalog number: 37224
Epoch time:      11076.42207246
Element set:    0109
Inclination:      071.9712 deg
RA of node:       241.3960 deg
Eccentricity:    0.0017800
Arg of perigee:   096.5373 deg
Mean anomaly:     263.7815 deg
Mean motion:   14.76929834 rev/day
Decay rate:       8.68e-06 rev/day^2
Epoch rev:           01732
Checksum:              300

Satellite: FAST1
Catalog number: 37227
Epoch time:      11118.26328041
Element set:    0013
Inclination:      071.9696 deg
RA of node:       149.3452 deg
Eccentricity:    0.0016556
Arg of perigee:   008.7620 deg
Mean anomaly:     351.3794 deg
Mean motion:   14.76562880 rev/day
Decay rate:       1.80e-06 rev/day^2
Epoch rev:           00195
Checksum:              288

